sat.trackr.live / text

‹ back to catalog

STARLINK-32349

NORAD 61700 · 2024-195P

PAYLOAD ACTIVE UNKNOWN

§ Identity

Operator
Country
US
Launch date
2024-10-30
Launch site
AFWTR
Launch vehicle
Mass (kg)
RCS (m²)

Purposes: comms

External: N2YO · Heavens-Above · Gunter

§ Orbital elements

Epoch: 2026-09-21T09:52:31.528128Z

Period
93.85 min
Inclination
53.1614°
Eccentricity
0.0001164
Mean motion
15.34386365 rev/d
Perigee alt
461.9 km
Apogee alt
463.5 km
Semi-major
6,840.9 km
B*
2.0393e-5
RAAN
325.0986°
Arg perigee
82.2199°
Mean anomaly
277.8935°
Rev number
10,716

§ Raw data

STARLINK-323491 61700U 24195P   26264.41147602  .00000313  00000+0  20393-4 0  99972 61700  53.1614 325.0986 0001164  82.2199 277.8935 15.34386365107162

JSON: /api/v1/satellites/61700 · /tle

For live sub-satellite position, see the globe view (requires WebGL).

§ Visibility from observer

Set your observer location to see the next 7 days of passes ≥ 10°. The values pass through the URL so the page stays shareable.

No JS? Fill the form by hand. The geolocation button needs JavaScript.